TKJ5ED LTFJ-LOWW

Flight info

Callsign TKJ5ED
Flight time 1h 51m
Altitude 36000
Route TUDBU DCT UPAMA DCT NEKUL DCT TEGRI DCT ERGUZ DCT BALUX DCT TORNO DCT NATEX NATEX2W
Aircraft B738/M-SDE2E3FGHIRWXY/LB1

Departure

Time 2026-04-23 09:01
Airport Istanbul Sabiha Gökçen International Airport (LTFJ)

Arrival

Time 2026-04-23 10:52
Airport Vienna International Airport (LOWW)
Time Latitude Longitude Altitude Speed Heading
2026-04-23 08:29 40.90710 29.32379 310 ft 0 kts 154°
2026-04-23 08:47 40.90721 29.32372 310 ft 2 kts 154°
2026-04-23 08:48 40.90736 29.32362 309 ft 2 kts 154°
2026-04-23 08:48 40.90751 29.32353 309 ft 2 kts 154°
2026-04-23 08:48 40.90765 29.32343 308 ft 2 kts 158°
2026-04-23 08:48 40.90781 29.32345 309 ft 2 kts 221°
2026-04-23 08:49 40.90791 29.32360 309 ft 1 kts 239°
2026-04-23 08:49 40.90792 29.32364 309 ft 0 kts 241°
2026-04-23 08:49 40.90795 29.32370 308 ft 1 kts 241°
2026-04-23 08:49 40.90797 29.32374 309 ft 0 kts 241°
2026-04-23 08:51 40.90796 29.32374 309 ft 0 kts 241°
2026-04-23 08:51 40.90793 29.32366 309 ft 2 kts 241°
2026-04-23 08:51 40.90779 29.32333 310 ft 6 kts 241°
2026-04-23 08:51 40.90753 29.32273 310 ft 9 kts 228°
2026-04-23 08:52 40.90692 29.32291 310 ft 11 kts 154°
2026-04-23 08:52 40.90650 29.32318 310 ft 0 kts 154°
2026-04-23 08:52 40.90645 29.32321 310 ft 2 kts 154°
2026-04-23 08:52 40.90626 29.32333 310 ft 5 kts 154°
2026-04-23 08:53 40.90586 29.32323 310 ft 8 kts 223°
2026-04-23 08:53 40.90551 29.32237 310 ft 13 kts 244°
2026-04-23 08:53 40.90505 29.32116 310 ft 16 kts 244°
2026-04-23 08:53 40.90454 29.31976 310 ft 17 kts 244°
2026-04-23 08:54 40.90404 29.31839 310 ft 16 kts 244°
2026-04-23 08:54 40.90363 29.31728 310 ft 12 kts 244°
2026-04-23 08:54 40.90323 29.31621 310 ft 13 kts 244°
2026-04-23 08:54 40.90283 29.31511 308 ft 14 kts 244°
2026-04-23 08:55 40.90237 29.31387 309 ft 16 kts 244°
2026-04-23 08:55 40.90184 29.31244 310 ft 19 kts 244°
2026-04-23 08:55 40.90127 29.31088 310 ft 19 kts 244°
2026-04-23 08:55 40.90071 29.30936 310 ft 18 kts 244°
2026-04-23 08:56 40.90018 29.30791 309 ft 17 kts 244°
2026-04-23 08:56 40.89966 29.30650 310 ft 17 kts 245°
2026-04-23 08:56 40.89915 29.30514 310 ft 16 kts 244°
2026-04-23 08:56 40.89867 29.30382 309 ft 16 kts 244°
2026-04-23 08:57 40.89819 29.30250 309 ft 17 kts 244°
2026-04-23 08:57 40.89762 29.30099 307 ft 20 kts 244°
2026-04-23 08:57 40.89700 29.29926 307 ft 21 kts 244°
2026-04-23 08:57 40.89635 29.29752 306 ft 21 kts 244°
2026-04-23 08:58 40.89568 29.29570 303 ft 23 kts 244°
2026-04-23 08:58 40.89500 29.29386 302 ft 22 kts 244°
2026-04-23 08:58 40.89428 29.29257 302 ft 14 kts 198°
2026-04-23 08:58 40.89341 29.29289 303 ft 14 kts 155°
2026-04-23 08:59 40.89283 29.29327 300 ft 6 kts 153°
2026-04-23 08:59 40.89283 29.29366 300 ft 0 kts 64°
2026-04-23 08:59 40.89285 29.29371 301 ft 5 kts 64°
2026-04-23 09:00 40.89387 29.29652 306 ft 64 kts 64°
2026-04-23 09:00 40.89666 29.30409 309 ft 119 kts 64°
2026-04-23 09:00 40.90099 29.31579 347 ft 160 kts 62°
2026-04-23 09:00 40.90591 29.32942 885 ft 163 kts 64°
2026-04-23 09:01 40.91054 29.34276 1700 ft 154 kts 63°
2026-04-23 09:01 40.91543 29.35590 2216 ft 164 kts 63°
2026-04-23 09:01 40.92086 29.37049 2477 ft 189 kts 63°
2026-04-23 09:01 40.92697 29.38689 2666 ft 209 kts 64°
2026-04-23 09:02 40.93363 29.40478 2902 ft 225 kts 63°
2026-04-23 09:02 40.94075 29.42393 3221 ft 240 kts 63°
2026-04-23 09:02 40.94830 29.44443 3669 ft 253 kts 63°
2026-04-23 09:02 40.95583 29.46503 4421 ft 253 kts 63°
2026-04-23 09:03 40.96351 29.48602 5141 ft 256 kts 63°
2026-04-23 09:03 40.97144 29.50773 5802 ft 261 kts 63°
2026-04-23 09:03 40.97936 29.52939 6539 ft 261 kts 63°
2026-04-23 09:03 40.98717 29.55076 7044 ft 264 kts 62°
2026-04-23 09:04 40.99540 29.57330 7597 ft 270 kts 63°
2026-04-23 09:04 41.00454 29.59489 8157 ft 275 kts 48°
2026-04-23 09:04 41.02020 29.60954 8772 ft 275 kts 17°
2026-04-23 09:04 41.03878 29.61246 9368 ft 276 kts 351°
2026-04-23 09:05 41.05733 29.60648 10045 ft 276 kts 343°
2026-04-23 09:05 41.07620 29.59922 10314 ft 293 kts 343°
2026-04-23 09:05 41.09625 29.59141 10492 ft 311 kts 343°
2026-04-23 09:05 41.11765 29.58312 10757 ft 325 kts 342°
2026-04-23 09:06 41.13958 29.57472 11327 ft 329 kts 342°
2026-04-23 09:06 41.16188 29.56621 11796 ft 337 kts 342°
2026-04-23 09:06 41.18441 29.55766 12487 ft 337 kts 342°
2026-04-23 09:06 41.20727 29.54900 13071 ft 342 kts 342°
2026-04-23 09:07 41.20945 29.54817 13132 ft 342 kts 342°
2026-04-23 09:07 41.22981 29.54044 13742 ft 344 kts 341°
2026-04-23 09:07 41.25303 29.53237 14376 ft 347 kts 345°
2026-04-23 09:07 41.27648 29.52578 14957 ft 350 kts 346°
2026-04-23 09:08 41.30047 29.51942 15575 ft 353 kts 346°
2026-04-23 09:08 41.32476 29.51286 16190 ft 356 kts 346°
2026-04-23 09:08 41.34920 29.50607 16819 ft 358 kts 345°
2026-04-23 09:08 41.37340 29.49927 17429 ft 361 kts 345°
2026-04-23 09:09 41.39784 29.49126 18031 ft 363 kts 340°
2026-04-23 09:09 41.42158 29.47972 18570 ft 365 kts 336°
2026-04-23 09:09 41.44513 29.46698 19151 ft 365 kts 334°
2026-04-23 09:09 41.46885 29.45405 19637 ft 369 kts 334°
2026-04-23 09:10 41.49282 29.44124 20090 ft 374 kts 335°
2026-04-23 09:10 41.54186 29.41575 21039 ft 381 kts 335°
2026-04-23 09:10 41.56672 29.40300 21495 ft 384 kts 335°
2026-04-23 09:11 41.59180 29.39014 21962 ft 388 kts 335°
2026-04-23 09:11 41.61618 29.37597 22397 ft 387 kts 324°
2026-04-23 09:11 41.63615 29.35230 22801 ft 383 kts 304°
2026-04-23 09:11 41.64935 29.32167 23281 ft 381 kts 290°
2026-04-23 09:12 41.65579 29.28737 23685 ft 382 kts 274°
2026-04-23 09:12 41.65688 29.25186 24086 ft 383 kts 270°
2026-04-23 09:12 41.65726 29.21623 24495 ft 384 kts 270°
2026-04-23 09:12 41.65777 29.18051 24891 ft 385 kts 271°
2026-04-23 09:13 41.65850 29.14472 25281 ft 386 kts 271°
2026-04-23 09:13 41.65933 29.10868 25653 ft 388 kts 271°
2026-04-23 09:13 41.66018 29.07247 25920 ft 392 kts 271°
2026-04-23 09:13 41.66102 29.03579 26178 ft 396 kts 271°
2026-04-23 09:14 41.66184 28.99936 26585 ft 396 kts 271°
2026-04-23 09:14 41.66262 28.96390 26976 ft 396 kts 271°
2026-04-23 09:14 41.66343 28.92703 27325 ft 398 kts 271°
2026-04-23 09:14 41.66423 28.89021 27637 ft 399 kts 271°
2026-04-23 09:15 41.66502 28.85275 27966 ft 401 kts 271°
2026-04-23 09:15 41.66580 28.81542 28299 ft 402 kts 271°
2026-04-23 09:15 41.66655 28.77849 28610 ft 404 kts 271°
2026-04-23 09:15 41.66731 28.74032 28930 ft 405 kts 271°
2026-04-23 09:16 41.66806 28.70255 29157 ft 409 kts 271°
2026-04-23 09:16 41.66954 28.62614 29558 ft 415 kts 271°
2026-04-23 09:16 41.67021 28.58751 29940 ft 414 kts 270°
2026-04-23 09:17 41.67068 28.54909 30360 ft 410 kts 270°
2026-04-23 09:17 41.67108 28.51117 30728 ft 408 kts 270°
2026-04-23 09:17 41.67193 28.47297 30909 ft 411 kts 275°
2026-04-23 09:17 41.67874 28.43567 31052 ft 416 kts 290°
2026-04-23 09:18 41.69034 28.40008 31357 ft 416 kts 292°
2026-04-23 09:18 41.70226 28.36491 31667 ft 415 kts 292°
2026-04-23 09:18 41.71421 28.32950 31719 ft 420 kts 292°
2026-04-23 09:18 41.72601 28.29410 31854 ft 423 kts 292°
2026-04-23 09:19 41.73785 28.25813 32179 ft 421 kts 292°
2026-04-23 09:19 41.74955 28.22229 32527 ft 419 kts 292°
2026-04-23 09:19 41.76117 28.18653 32778 ft 419 kts 292°
2026-04-23 09:19 41.77277 28.15076 32982 ft 420 kts 292°
2026-04-23 09:20 41.78441 28.11487 33212 ft 420 kts 292°
2026-04-23 09:20 41.79666 28.07935 33464 ft 420 kts 298°
2026-04-23 09:20 41.81326 28.04703 33713 ft 422 kts 306°
2026-04-23 09:20 41.83129 28.01598 33915 ft 423 kts 306°
2026-04-23 09:21 41.84868 27.98641 34095 ft 423 kts 306°
2026-04-23 09:21 41.86676 27.95532 34293 ft 423 kts 306°
2026-04-23 09:21 41.88469 27.92395 34476 ft 423 kts 305°
2026-04-23 09:21 41.90242 27.89252 34632 ft 423 kts 305°
2026-04-23 09:22 41.92015 27.86087 34792 ft 423 kts 305°
2026-04-23 09:22 41.93783 27.82925 34942 ft 424 kts 306°
2026-04-23 09:22 41.95565 27.79736 35039 ft 426 kts 306°
2026-04-23 09:22 41.97361 27.76612 35165 ft 428 kts 309°
2026-04-23 09:23 41.99388 27.73611 35344 ft 428 kts 312°
2026-04-23 09:23 42.01454 27.70809 35526 ft 428 kts 314°
2026-04-23 09:23 42.03581 27.68006 35670 ft 429 kts 314°
2026-04-23 09:23 42.05714 27.65195 35806 ft 429 kts 314°
2026-04-23 09:24 42.07840 27.62366 35968 ft 429 kts 313°
2026-04-23 09:24 42.12077 27.56633 36035 ft 433 kts 313°
2026-04-23 09:25 42.16328 27.50800 36051 ft 438 kts 313°
2026-04-23 09:25 42.20616 27.44884 36049 ft 444 kts 313°
2026-04-23 09:26 42.24957 27.38882 36056 ft 449 kts 314°
2026-04-23 09:26 42.29313 27.32848 36050 ft 453 kts 314°
2026-04-23 09:27 42.33722 27.26729 36042 ft 455 kts 314°
2026-04-23 09:27 42.38146 27.20577 36037 ft 456 kts 314°
2026-04-23 09:28 42.42567 27.14416 36031 ft 456 kts 314°
2026-04-23 09:28 42.46982 27.08249 36040 ft 455 kts 314°
2026-04-23 09:29 42.51251 27.02272 36037 ft 455 kts 314°
2026-04-23 09:29 42.55539 26.96258 36041 ft 454 kts 314°
2026-04-23 09:30 42.59893 26.90137 36033 ft 453 kts 315°
2026-04-23 09:30 42.64269 26.83973 36038 ft 453 kts 315°
2026-04-23 09:31 42.68632 26.77814 36035 ft 453 kts 315°
2026-04-23 09:31 42.72999 26.71635 36040 ft 453 kts 315°
2026-04-23 09:32 42.77364 26.65444 36036 ft 452 kts 316°
2026-04-23 09:32 42.81720 26.59252 36029 ft 453 kts 315°
2026-04-23 09:33 42.86077 26.53048 36043 ft 453 kts 315°
2026-04-23 09:33 42.90439 26.46825 36032 ft 454 kts 316°
2026-04-23 09:34 42.94771 26.40629 36039 ft 454 kts 316°
2026-04-23 09:34 42.99142 26.34364 36043 ft 456 kts 316°
2026-04-23 09:35 43.03503 26.28099 36052 ft 456 kts 316°
2026-04-23 09:35 43.07172 26.22818 36032 ft 458 kts 316°
2026-04-23 09:36 43.11528 26.16535 36050 ft 458 kts 316°
2026-04-23 09:36 43.15930 26.10169 36052 ft 460 kts 316°
2026-04-23 09:37 43.20329 26.03796 36047 ft 460 kts 316°
2026-04-23 09:37 43.24620 25.97564 36038 ft 461 kts 317°
2026-04-23 09:38 43.29024 25.91155 36054 ft 462 kts 316°
2026-04-23 09:38 43.33399 25.84773 36049 ft 462 kts 316°
2026-04-23 09:39 43.37806 25.78330 36043 ft 463 kts 317°
2026-04-23 09:39 43.42215 25.71868 36042 ft 463 kts 317°
2026-04-23 09:40 43.46614 25.65406 36046 ft 462 kts 317°
2026-04-23 09:40 43.51011 25.58934 36041 ft 462 kts 316°
2026-04-23 09:41 43.55398 25.52462 36027 ft 462 kts 317°
2026-04-23 09:41 43.59787 25.45970 36038 ft 462 kts 317°
2026-04-23 09:42 43.64185 25.39484 36038 ft 462 kts 317°
2026-04-23 09:42 43.68622 25.33145 36045 ft 461 kts 318°
2026-04-23 09:43 43.73099 25.26793 36013 ft 461 kts 319°
2026-04-23 09:43 43.75337 25.23605 36038 ft 460 kts 318°
2026-04-23 09:45 43.78957 25.18427 36040 ft 460 kts 318°
2026-04-23 09:45 43.83405 25.12038 36044 ft 460 kts 318°
2026-04-23 09:46 43.87855 25.05628 36036 ft 461 kts 318°
2026-04-23 09:46 43.92175 24.99389 36024 ft 461 kts 318°
2026-04-23 09:47 43.96607 24.92977 36038 ft 461 kts 318°
2026-04-23 09:47 44.01026 24.86569 36039 ft 461 kts 318°
2026-04-23 09:48 44.05458 24.80127 36037 ft 461 kts 318°
2026-04-23 09:48 44.09864 24.73707 36033 ft 461 kts 318°
2026-04-23 09:49 44.14294 24.67237 36036 ft 462 kts 318°
2026-04-23 09:49 44.18725 24.60752 36037 ft 462 kts 318°
2026-04-23 09:50 44.23155 24.54253 36034 ft 463 kts 318°
2026-04-23 09:50 44.27592 24.47728 36041 ft 463 kts 318°
2026-04-23 09:51 44.32018 24.41205 36041 ft 463 kts 318°
2026-04-23 09:51 44.36444 24.34664 36033 ft 463 kts 318°
2026-04-23 09:52 44.40863 24.28121 36019 ft 463 kts 318°
2026-04-23 09:52 44.45255 24.21601 36035 ft 463 kts 318°
2026-04-23 09:53 44.49670 24.15032 36037 ft 462 kts 318°
2026-04-23 09:53 44.54073 24.08464 36033 ft 462 kts 318°
2026-04-23 09:54 44.58473 24.01886 36020 ft 462 kts 318°
2026-04-23 09:54 44.62750 23.95477 36029 ft 461 kts 318°
2026-04-23 09:55 44.67132 23.88895 36033 ft 461 kts 318°
2026-04-23 09:55 44.71475 23.82357 36027 ft 460 kts 318°
2026-04-23 09:56 44.75841 23.75768 36010 ft 460 kts 318°
2026-04-23 09:56 44.80198 23.69176 36020 ft 459 kts 318°
2026-04-23 09:57 44.84547 23.62581 36028 ft 459 kts 318°
2026-04-23 09:57 44.88889 23.55983 36020 ft 458 kts 318°
2026-04-23 09:58 44.93221 23.49383 35997 ft 458 kts 318°
2026-04-23 09:58 44.97518 23.42819 36008 ft 458 kts 318°
2026-04-23 09:59 45.01822 23.36231 36019 ft 458 kts 318°
2026-04-23 09:59 45.06141 23.29603 36025 ft 458 kts 318°
2026-04-23 10:00 45.10456 23.22966 36016 ft 458 kts 318°
2026-04-23 10:00 45.14770 23.16315 36030 ft 458 kts 318°
2026-04-23 10:01 45.19081 23.09652 36034 ft 459 kts 318°
2026-04-23 10:01 45.23402 23.02957 36018 ft 460 kts 317°
2026-04-23 10:02 45.27564 22.96490 36016 ft 458 kts 318°
2026-04-23 10:02 45.31863 22.89798 36040 ft 458 kts 317°
2026-04-23 10:03 45.36151 22.83107 36044 ft 458 kts 317°
2026-04-23 10:03 45.40434 22.76406 36045 ft 457 kts 317°
2026-04-23 10:04 45.44723 22.69679 36031 ft 457 kts 317°
2026-04-23 10:04 45.48993 22.62967 36046 ft 455 kts 317°
2026-04-23 10:05 45.53118 22.56184 36057 ft 457 kts 313°
2026-04-23 10:05 45.56896 22.48883 36066 ft 457 kts 311°
2026-04-23 10:06 45.60603 22.41511 36067 ft 456 kts 311°
2026-04-23 10:06 45.64323 22.34176 36072 ft 455 kts 311°
2026-04-23 10:07 45.68050 22.26874 36062 ft 454 kts 311°
2026-04-23 10:07 45.71776 22.19576 36086 ft 454 kts 311°
2026-04-23 10:08 45.75499 22.12267 36084 ft 455 kts 311°
2026-04-23 10:08 45.79199 22.04980 36072 ft 456 kts 311°
2026-04-23 10:09 45.84698 21.94113 36077 ft 457 kts 311°
2026-04-23 10:09 45.88431 21.86711 36074 ft 459 kts 311°
2026-04-23 10:10 45.92174 21.79271 36058 ft 459 kts 310°
2026-04-23 10:10 45.95911 21.71822 36071 ft 460 kts 310°
2026-04-23 10:11 45.99647 21.64355 36072 ft 460 kts 310°
2026-04-23 10:11 46.03353 21.56929 36068 ft 460 kts 310°
2026-04-23 10:12 46.07087 21.49427 36049 ft 460 kts 310°
2026-04-23 10:12 46.10809 21.41929 36070 ft 460 kts 310°
2026-04-23 10:13 46.14508 21.34457 36078 ft 460 kts 310°
2026-04-23 10:13 46.18229 21.26921 36075 ft 460 kts 310°
2026-04-23 10:14 46.21936 21.19392 36061 ft 460 kts 310°
2026-04-23 10:14 46.25648 21.11836 36071 ft 460 kts 310°
2026-04-23 10:15 46.29681 21.04722 36082 ft 455 kts 316°
2026-04-23 10:15 46.33850 20.98165 36073 ft 455 kts 317°
2026-04-23 10:16 46.38106 20.91449 36072 ft 455 kts 316°
2026-04-23 10:16 46.42377 20.84590 36066 ft 455 kts 316°
2026-04-23 10:17 46.46571 20.77789 36064 ft 455 kts 316°
2026-04-23 10:17 46.50785 20.70929 36075 ft 455 kts 316°
2026-04-23 10:18 46.54998 20.64057 36075 ft 455 kts 316°
2026-04-23 10:18 46.59204 20.57180 36057 ft 455 kts 316°
2026-04-23 10:19 46.63398 20.50307 36062 ft 454 kts 316°
2026-04-23 10:19 46.67591 20.43419 36071 ft 454 kts 316°
2026-04-23 10:20 46.71779 20.36522 36070 ft 454 kts 316°
2026-04-23 10:20 46.75958 20.29622 36061 ft 454 kts 316°
2026-04-23 10:21 46.79429 20.23876 36067 ft 454 kts 316°
2026-04-23 10:21 46.83601 20.16955 36072 ft 454 kts 315°
2026-04-23 10:22 46.88450 20.08888 36069 ft 454 kts 315°
2026-04-23 10:22 46.91937 20.03071 36074 ft 454 kts 315°
2026-04-23 10:23 46.95963 19.96341 36061 ft 453 kts 315°
2026-04-23 10:23 47.00098 19.89410 36075 ft 453 kts 315°
2026-04-23 10:24 47.04244 19.82445 36077 ft 453 kts 315°
2026-04-23 10:24 47.07940 19.74868 36083 ft 459 kts 306°
2026-04-23 10:25 47.11277 19.66854 36065 ft 459 kts 306°
2026-04-23 10:25 47.14594 19.58919 36072 ft 459 kts 306°
2026-04-23 10:26 47.17976 19.50960 36079 ft 459 kts 306°
2026-04-23 10:26 47.21367 19.43007 36083 ft 459 kts 306°
2026-04-23 10:27 47.23066 19.39016 35741 ft 465 kts 306°
2026-04-23 10:27 47.24786 19.34966 35217 ft 465 kts 307°
2026-04-23 10:27 47.26494 19.30932 34731 ft 462 kts 307°
2026-04-23 10:27 47.28190 19.26916 34254 ft 459 kts 307°
2026-04-23 10:28 47.29876 19.22926 33733 ft 459 kts 307°
2026-04-23 10:28 47.31565 19.18925 33213 ft 459 kts 307°
2026-04-23 10:28 47.33228 19.14978 32686 ft 459 kts 307°
2026-04-23 10:28 47.34858 19.10853 32158 ft 462 kts 302°
2026-04-23 10:29 47.36248 19.06632 31666 ft 463 kts 300°
2026-04-23 10:29 47.37576 19.02304 31142 ft 464 kts 299°
2026-04-23 10:29 47.38819 18.98172 30685 ft 465 kts 299°
2026-04-23 10:29 47.40140 18.93804 30200 ft 465 kts 299°
2026-04-23 10:30 47.41479 18.89429 29659 ft 466 kts 299°
2026-04-23 10:30 47.42824 18.85080 29098 ft 467 kts 299°
2026-04-23 10:30 47.44183 18.80711 28546 ft 468 kts 299°
2026-04-23 10:30 47.45528 18.76394 28035 ft 470 kts 299°
2026-04-23 10:31 47.46898 18.71993 27505 ft 471 kts 299°
2026-04-23 10:31 47.48264 18.67591 26991 ft 473 kts 299°
2026-04-23 10:31 47.49634 18.63167 26468 ft 474 kts 299°
2026-04-23 10:31 47.51008 18.58719 25968 ft 475 kts 299°
2026-04-23 10:32 47.52379 18.54274 25478 ft 476 kts 298°
2026-04-23 10:32 47.53751 18.49810 24989 ft 476 kts 298°
2026-04-23 10:32 47.54960 18.45238 24524 ft 476 kts 292°
2026-04-23 10:32 47.55970 18.40604 24044 ft 470 kts 291°
2026-04-23 10:33 47.56905 18.35999 23560 ft 464 kts 290°
2026-04-23 10:33 47.57823 18.31421 23018 ft 461 kts 290°
2026-04-23 10:33 47.58744 18.26882 22453 ft 459 kts 291°
2026-04-23 10:33 47.59671 18.22380 21927 ft 456 kts 291°
2026-04-23 10:34 47.60606 18.17899 21415 ft 454 kts 291°
2026-04-23 10:34 47.61542 18.13439 20907 ft 451 kts 291°
2026-04-23 10:34 47.62463 18.09065 20407 ft 449 kts 291°
2026-04-23 10:34 47.63390 18.04653 19921 ft 446 kts 291°
2026-04-23 10:35 47.64308 18.00278 19437 ft 443 kts 291°
2026-04-23 10:35 47.65176 17.96126 18983 ft 440 kts 291°
2026-04-23 10:35 47.66077 17.91808 18513 ft 438 kts 291°
2026-04-23 10:35 47.66973 17.87499 17970 ft 434 kts 291°
2026-04-23 10:36 47.67858 17.83234 17446 ft 431 kts 291°
2026-04-23 10:36 47.68733 17.79009 16926 ft 426 kts 291°
2026-04-23 10:36 47.69590 17.74860 16414 ft 422 kts 291°
2026-04-23 10:36 47.70443 17.70725 15911 ft 416 kts 292°
2026-04-23 10:37 47.71283 17.66639 15402 ft 409 kts 292°
2026-04-23 10:37 47.72107 17.62632 14960 ft 401 kts 292°
2026-04-23 10:37 47.72912 17.58708 14554 ft 393 kts 292°
2026-04-23 10:37 47.73700 17.54855 14188 ft 385 kts 292°
2026-04-23 10:38 47.74450 17.51072 13808 ft 379 kts 289°
2026-04-23 10:38 47.74822 17.47217 13381 ft 379 kts 278°
2026-04-23 10:38 47.74740 17.43295 12980 ft 378 kts 268°
2026-04-23 10:38 47.74395 17.39453 12598 ft 372 kts 267°
2026-04-23 10:39 47.74050 17.35666 12266 ft 366 kts 267°
2026-04-23 10:39 47.73720 17.32014 11962 ft 359 kts 267°
2026-04-23 10:39 47.73396 17.28367 11656 ft 353 kts 268°
2026-04-23 10:39 47.73081 17.24783 11353 ft 347 kts 268°
2026-04-23 10:40 47.72772 17.21249 11059 ft 342 kts 268°
2026-04-23 10:40 47.72469 17.17764 10757 ft 337 kts 268°
2026-04-23 10:40 47.72170 17.14339 10467 ft 332 kts 268°
2026-04-23 10:40 47.71874 17.10955 10175 ft 328 kts 268°
2026-04-23 10:41 47.71582 17.07621 9854 ft 324 kts 268°
2026-04-23 10:41 47.71295 17.04361 9567 ft 320 kts 268°
2026-04-23 10:41 47.71008 17.01116 9282 ft 314 kts 269°
2026-04-23 10:41 47.70743 16.98120 9035 ft 310 kts 269°
2026-04-23 10:42 47.70464 16.94976 8771 ft 305 kts 269°
2026-04-23 10:42 47.70189 16.91878 8508 ft 300 kts 269°
2026-04-23 10:42 47.69916 16.88825 8246 ft 296 kts 269°
2026-04-23 10:42 47.69661 16.85814 7977 ft 290 kts 274°
2026-04-23 10:43 47.70024 16.83021 7699 ft 269 kts 306°
2026-04-23 10:43 47.71196 16.80971 7487 ft 257 kts 319°
2026-04-23 10:43 47.72446 16.79098 7234 ft 254 kts 319°
2026-04-23 10:43 47.73672 16.77233 6995 ft 251 kts 318°
2026-04-23 10:44 47.74878 16.75381 6737 ft 248 kts 318°
2026-04-23 10:44 47.76068 16.73551 6484 ft 244 kts 320°
2026-04-23 10:44 47.77446 16.72208 6208 ft 233 kts 340°
2026-04-23 10:44 47.78950 16.71500 5961 ft 226 kts 344°
2026-04-23 10:45 47.80446 16.70901 5743 ft 218 kts 344°
2026-04-23 10:45 47.81888 16.70323 5527 ft 211 kts 343°
2026-04-23 10:45 47.83287 16.69756 5312 ft 205 kts 343°
2026-04-23 10:45 47.84645 16.69200 5106 ft 199 kts 342°
2026-04-23 10:46 47.85972 16.68664 4913 ft 195 kts 342°
2026-04-23 10:46 47.87239 16.68156 4721 ft 186 kts 342°
2026-04-23 10:46 47.88453 16.67666 4505 ft 176 kts 342°
2026-04-23 10:46 47.89596 16.67204 4309 ft 166 kts 342°
2026-04-23 10:47 47.90708 16.66787 4127 ft 164 kts 342°
2026-04-23 10:47 47.91806 16.66344 3877 ft 163 kts 341°
2026-04-23 10:47 47.92887 16.65889 3593 ft 159 kts 341°
2026-04-23 10:47 47.93927 16.65449 3339 ft 152 kts 341°
2026-04-23 10:48 47.94931 16.65026 3082 ft 146 kts 341°
2026-04-23 10:48 47.95886 16.64623 3040 ft 144 kts 341°
2026-04-23 10:48 47.96847 16.64211 2970 ft 141 kts 341°
2026-04-23 10:48 47.97763 16.63826 2882 ft 135 kts 341°
2026-04-23 10:49 47.98663 16.63446 2690 ft 131 kts 340°
2026-04-23 10:49 47.99529 16.63080 2496 ft 126 kts 340°
2026-04-23 10:49 48.00363 16.62731 2319 ft 127 kts 340°
2026-04-23 10:49 48.01207 16.62372 2159 ft 127 kts 340°
2026-04-23 10:50 48.02051 16.62013 1988 ft 125 kts 339°
2026-04-23 10:50 48.02865 16.61670 1826 ft 120 kts 339°
2026-04-23 10:50 48.03667 16.61328 1677 ft 120 kts 339°
2026-04-23 10:50 48.04462 16.60996 1513 ft 118 kts 339°
2026-04-23 10:51 48.05279 16.60658 1378 ft 129 kts 339°
2026-04-23 10:51 48.06137 16.60293 1302 ft 130 kts 340°
2026-04-23 10:51 48.07012 16.59919 1116 ft 133 kts 341°
2026-04-23 10:51 48.07901 16.59546 879 ft 130 kts 341°
2026-04-23 10:52 48.08755 16.59181 671 ft 125 kts 340°
2026-04-23 10:52 48.09549 16.58848 617 ft 108 kts 344°
2026-04-23 10:52 48.10156 16.58589 616 ft 73 kts 344°
2026-04-23 10:52 48.10497 16.58444 618 ft 39 kts 343°
2026-04-23 10:53 48.10707 16.58304 615 ft 26 kts 323°
2026-04-23 10:53 48.10821 16.58142 618 ft 15 kts 314°
2026-04-23 10:53 48.10893 16.58032 618 ft 14 kts 314°
2026-04-23 10:53 48.10976 16.57963 616 ft 14 kts 342°
2026-04-23 10:54 48.11061 16.57927 608 ft 11 kts 344°
2026-04-23 10:54 48.11112 16.57855 615 ft 10 kts 296°
2026-04-23 10:54 48.11143 16.57759 619 ft 10 kts 296°
2026-04-23 10:54 48.11174 16.57665 622 ft 11 kts 296°
2026-04-23 10:55 48.11208 16.57560 612 ft 12 kts 296°
2026-04-23 10:55 48.11247 16.57441 616 ft 14 kts 296°
2026-04-23 10:55 48.11290 16.57307 620 ft 15 kts 296°
2026-04-23 10:55 48.11336 16.57167 615 ft 15 kts 296°
2026-04-23 10:56 48.11382 16.57028 620 ft 15 kts 296°
2026-04-23 10:56 48.11430 16.56885 620 ft 16 kts 296°
2026-04-23 10:56 48.11476 16.56737 615 ft 15 kts 295°
2026-04-23 10:56 48.11524 16.56590 613 ft 16 kts 296°
2026-04-23 10:57 48.11573 16.56438 609 ft 17 kts 296°
2026-04-23 10:57 48.11624 16.56285 616 ft 15 kts 302°
2026-04-23 10:57 48.11697 16.56227 615 ft 9 kts 343°
2026-04-23 10:57 48.11753 16.56202 616 ft 8 kts 343°
2026-04-23 10:58 48.11777 16.56191 619 ft 0 kts 343°
2026-04-23 10:58 48.11779 16.56190 617 ft 1 kts 343°
2026-04-23 10:58 48.11783 16.56189 616 ft 0 kts 343°
2026-04-23 10:59 48.11782 16.56189 616 ft 0 kts 343°